Retour au catalogue

GREGOIRE

ActifScienceSSO
NORAD 56946·PAYLOAD·🇧🇪 Belgium

Lancé Jun 12, 2023 depuis Vandenberg Space Force Base

Loading…

Prochains Passages (prochaines 24 heures)

TLE

FraisSource: Space-Track

Époque: Sep 14, 2026, 08:25 UTC

1 56946U 23084Q   26257.35074076  .00006915  00000-0  17739-3 0  9992
2 56946  97.6369  44.8583 0005908  11.1192 349.0183 15.39670991181425

Suivez GREGOIRE en temps réel avec AllMySat

Download on the App Store